PBO Station Position Time Series. Reference Frame : NAM14
Format Version,1.1.1
4-character ID,P702
Station name,MSH_ElkRckWA2004
Begin Date, 2004-11-06
End Date, 2023-06-26
Release Date, 2023-06-27
Reference position, 46.3001612215 North Latitude, -122.3456482972 East Longitude, 1305.69813 meters elevation,
Date, North (mm), East (mm), Vertical (mm), North Std. Deviation (mm), East Std. Deviation (mm),              Vertical Std. Deviation (mm), Quality,
2004-11-06,0.00, 0.00, 0.00, 2.34, 1.74, 7.66, repro,
2004-11-07,0.24, 1.20, -5.84, 2.23, 1.62, 7.21, repro,
2004-11-08,5.41, -1.15, -10.89, 8.51, 5.36, 24.28, repro,
2004-11-09,0.79, 0.17, -0.94, 2.35, 1.72, 7.68, repro,
2004-11-10,-0.43, 0.34, -11.51, 2.41, 1.75, 8.08, repro,
2004-11-11,0.25, 0.93, -7.89, 2.28, 1.68, 7.42, repro,
2004-11-12,1.41, 0.86, -4.78, 2.28, 1.67, 7.38, repro,
2004-11-13,1.50, 0.13, -6.12, 2.26, 1.64, 7.21, repro,
2004-11-14,0.93, 0.61, -7.05, 2.32, 1.69, 7.36, repro,
2004-11-15,-0.52, 1.44, -12.08, 2.21, 1.60, 7.09, repro,
2004-11-16,1.62, 1.34, -12.89, 2.19, 1.60, 7.07, repro,
2004-11-17,0.66, 1.12, -9.46, 2.21, 1.61, 7.14, repro,
2004-11-18,-2.96, 0.23, -2.25, 2.20, 1.60, 7.18, repro,
2004-11-19,-5.52, 3.41, 1.00, 2.36, 1.73, 7.66, repro,
2004-11-20,-6.55, 2.01, 2.17, 2.24, 1.62, 7.19, repro,
2004-11-21,-0.75, 0.58, -4.18, 2.48, 1.81, 7.92, repro,
2004-11-22,0.23, 1.02, -9.41, 2.34, 1.70, 7.67, repro,
2004-11-23,-0.77, 1.29, -11.68, 2.26, 1.63, 7.22, repro,
2004-11-24,-1.23, 0.82, 5.58, 2.27, 1.64, 7.25, repro,
2004-11-25,-2.42, 0.71, 8.44, 2.56, 1.87, 8.19, repro,
2004-11-26,-0.66, 1.27, -3.96, 2.39, 1.77, 7.72, repro,
2004-11-27,-1.34, 0.60, -1.14, 2.32, 1.75, 7.67, repro,
2004-11-28,-3.19, 1.00, -2.58, 2.21, 1.64, 7.26, repro,
2004-11-29,-0.16, 1.01, -7.66, 2.19, 1.60, 7.10, repro,
2004-11-30,0.09, 1.66, -9.74, 2.23, 1.65, 7.34, repro,
2004-12-01,-0.65, 1.86, -4.91, 2.36, 1.70, 7.50, repro,
2004-12-02,-0.04, 0.69, -9.01, 2.22, 1.58, 7.08, repro,
2004-12-03,0.24, 0.19, -5.38, 2.36, 1.71, 7.54, repro,
2004-12-04,0.87, 0.16, -2.72, 2.33, 1.71, 7.52, repro,
2004-12-05,1.50, 0.76, 5.24, 2.27, 1.64, 7.35, repro,
2004-12-06,-0.81, 0.59, 3.46, 2.37, 1.75, 7.74, repro,
2004-12-07,-1.08, 1.17, 6.60, 2.28, 1.66, 7.35, repro,
2004-12-08,-1.01, 1.27, 0.22, 2.21, 1.58, 7.07, repro,
2004-12-09,-0.38, 1.91, 0.67, 2.20, 1.63, 7.16, repro,
2004-12-10,-6.89, -1.38, -15.08, 2.30, 1.72, 7.54, repro,
2004-12-11,-2.26, 0.69, -5.79, 2.26, 1.64, 7.34, repro,
2004-12-12,-1.10, 1.63, -8.12, 2.36, 1.69, 7.51, repro,
2004-12-13,1.21, 0.75, -8.77, 2.22, 1.60, 7.16, repro,
2004-12-14,-1.57, 0.41, -12.40, 2.31, 1.64, 7.19, repro,
2004-12-15,-1.09, 2.07, -14.77, 2.40, 1.70, 7.45, repro,
2004-12-16,-0.36, 0.75, -10.04, 2.23, 1.59, 7.18, repro,
2004-12-17,-0.85, 1.21, -14.21, 2.17, 1.59, 7.07, repro,
2004-12-18,-1.32, 1.63, -14.02, 2.17, 1.59, 7.04, repro,
2004-12-19,-0.08, 2.36, -13.52, 2.15, 1.56, 6.95, repro,
2004-12-20,-1.07, 1.44, -5.55, 2.13, 1.54, 6.83, repro,
2004-12-21,-3.24, 2.57, 0.14, 2.18, 1.58, 7.09, repro,
2004-12-22,-2.66, 2.98, -12.16, 2.20, 1.59, 7.14, repro,
2004-12-23,-0.32, 1.74, -11.54, 2.16, 1.56, 6.94, repro,
2004-12-24,-1.49, 1.50, -8.02, 2.18, 1.59, 7.07, repro,
2004-12-25,-1.53, 0.03, -3.16, 2.14, 1.57, 6.93, repro,
2004-12-26,0.36, 0.08, -0.41, 2.25, 1.58, 7.03, repro,
2004-12-27,0.43, 1.05, -6.67, 2.28, 1.60, 7.13, repro,
2004-12-28,0.75, 0.40, -3.17, 2.36, 1.65, 7.37, repro,
2004-12-29,-0.69, 2.03, -6.09, 2.37, 1.63, 7.29, repro,
2004-12-30,-0.80, 1.82, -2.67, 2.42, 1.70, 7.50, repro,
2004-12-31,-1.05, 2.09, -2.90, 2.47, 1.75, 7.59, repro,
2005-01-01,-0.72, 0.70, -9.47, 2.26, 1.59, 7.05, repro,
2005-01-02,0.05, 1.85, -10.80, 2.34, 1.62, 7.16, repro,
2005-01-03,-1.55, 1.85, -11.40, 2.39, 1.65, 7.31, repro,
2005-01-04,0.69, 1.94, -9.92, 2.42, 1.69, 7.38, repro,
2005-01-05,1.20, 2.75, -10.22, 2.36, 1.66, 7.31, repro,
2005-01-06,0.25, 1.51, -6.30, 2.35, 1.69, 7.32, repro,
2005-01-07,-0.31, -0.24, -6.68, 2.37, 1.69, 7.35, repro,
2005-01-08,1.74, 0.74, -6.66, 2.30, 1.68, 7.29, repro,
2005-01-09,0.64, 1.38, -8.63, 2.31, 1.70, 7.39, repro,
2005-01-10,0.53, 2.14, -11.34, 2.43, 1.82, 7.99, repro,
2005-01-11,0.25, 1.90, -3.89, 2.48, 1.89, 8.08, repro,
2005-01-12,-0.39, 3.71, -6.58, 2.49, 1.86, 8.25, repro,
2005-01-13,-3.77, 6.03, -3.46, 2.40, 1.75, 7.61, repro,
2005-01-14,-4.59, 5.14, -12.85, 2.39, 1.79, 7.64, repro,
2005-01-15,2.76, 3.17, -15.11, 2.43, 1.89, 8.17, repro,
2005-01-16,12.96, 5.31, -2.13, 2.31, 1.68, 7.22, repro,
2005-01-17,-2.44, 1.82, -18.25, 2.18, 1.57, 6.94, repro,
2005-01-18,-5.88, 1.44, -13.01, 2.29, 1.66, 7.32, repro,
2005-01-19,-13.38, -2.39, -12.69, 2.33, 1.63, 7.21, repro,
2005-01-20,-7.86, -0.11, -11.75, 2.32, 1.69, 7.34, repro,
2005-01-21,-0.15, 4.35, -11.22, 2.28, 1.69, 7.44, repro,
2005-01-22,-2.73, 6.95, -23.29, 2.25, 1.69, 7.34, repro,
2005-01-23,-0.73, 3.81, -14.28, 2.20, 1.59, 7.00, repro,
2005-01-24,-3.55, 2.09, -14.96, 2.24, 1.64, 7.18, repro,
2005-01-25,-2.84, 2.62, -8.97, 2.32, 1.79, 7.88, repro,
2005-01-26,-5.96, 1.77, -12.45, 2.26, 1.63, 7.15, repro,
2005-01-27,-1.95, 3.50, -6.45, 2.26, 1.70, 7.28, repro,
2005-01-28,-2.03, 1.09, -7.03, 2.26, 1.71, 7.31, repro,
2005-01-29,-0.45, 4.09, -9.93, 2.20, 1.57, 6.99, repro,
2005-01-30,-1.70, 3.76, -15.95, 2.21, 1.60, 7.07, repro,
2005-01-31,0.49, 4.02, -8.48, 2.22, 1.62, 7.11, repro,
2005-02-01,-1.68, 2.96, -11.74, 2.20, 1.63, 7.14, repro,
2005-02-02,-1.18, 2.80, -11.87, 2.19, 1.57, 6.98, repro,
2005-02-03,-1.97, 3.81, -14.38, 2.24, 1.58, 7.10, repro,
2005-02-04,-0.84, 3.96, -11.88, 2.19, 1.55, 6.92, repro,
2005-02-05,-3.61, 2.60, -3.89, 2.17, 1.55, 6.93, repro,
2005-02-06,-5.45, 3.99, -0.58, 2.16, 1.55, 6.91, repro,
2005-02-07,-3.52, 4.02, -3.02, 2.19, 1.55, 6.93, repro,
2005-02-08,-0.47, 3.38, -10.55, 2.24, 1.59, 7.11, repro,
2005-02-09,-1.42, 3.74, -6.20, 2.23, 1.59, 7.12, repro,
2005-02-10,-2.55, 3.11, -6.30, 2.20, 1.54, 6.95, repro,
2005-02-11,-0.57, 2.85, -4.42, 2.18, 1.54, 6.88, repro,
2005-02-12,-0.28, 4.63, -3.22, 2.18, 1.54, 6.93, repro,
2005-02-13,-2.04, 3.62, -4.08, 2.19, 1.54, 6.95, repro,
2005-02-14,-4.70, 4.18, -1.87, 2.18, 1.55, 6.95, repro,
2005-02-15,-3.85, 3.78, -6.78, 2.19, 1.55, 6.97, repro,
2005-02-16,-0.42, 2.14, -13.32, 2.18, 1.55, 6.93, repro,
2005-02-17,-0.92, 2.81, -7.65, 2.27, 1.57, 7.06, repro,
2005-02-18,-1.64, 2.95, -10.27, 2.21, 1.55, 7.03, repro,
2005-02-19,-0.83, 2.95, -5.27, 2.19, 1.55, 6.94, repro,
2005-02-20,-1.21, 2.65, -4.94, 2.19, 1.55, 6.91, repro,
2005-02-21,-1.84, 2.43, -7.56, 2.22, 1.59, 7.05, repro,
2005-02-22,-1.38, 3.41, -9.82, 2.20, 1.55, 6.96, repro,
2005-02-23,-1.64, 3.87, -9.85, 2.26, 1.56, 7.06, repro,
2005-02-24,-2.12, 3.45, -8.82, 2.26, 1.55, 7.05, repro,
2005-02-25,-2.03, 3.90, -6.69, 2.25, 1.56, 7.00, repro,
2005-02-26,-2.57, 4.28, -7.17, 2.23, 1.55, 6.98, repro,
2005-02-27,-1.53, 3.51, -5.45, 2.26, 1.56, 7.06, repro,
2005-02-28,-1.09, 2.90, -7.83, 2.32, 1.61, 7.19, repro,
2005-03-01,-1.31, 5.44, 1.16, 2.27, 1.57, 7.08, repro,
2005-03-02,-2.25, 3.21, -3.78, 2.27, 1.55, 7.02, repro,
2005-03-03,-1.29, 4.38, -8.71, 2.25, 1.56, 7.03, repro,
2005-03-04,-1.72, 3.96, -8.83, 2.23, 1.56, 7.00, repro,
2005-03-05,-1.60, 3.49, -12.73, 2.26, 1.56, 7.03, repro,
2005-03-06,-1.90, 4.71, -8.78, 2.28, 1.57, 7.10, repro,
2005-03-07,-0.28, 5.46, -4.75, 2.27, 1.55, 7.03, repro,
2005-03-08,-2.09, 4.85, -13.06, 2.25, 1.55, 6.98, repro,
2005-03-09,-0.21, 4.26, -11.08, 2.30, 1.61, 7.17, repro,
2005-03-10,-2.48, 4.27, -5.47, 2.25, 1.56, 7.00, repro,
2005-03-11,-1.27, 4.75, -3.43, 2.25, 1.56, 7.00, repro,
2005-03-12,-2.53, 3.96, -8.83, 2.27, 1.58, 7.06, repro,
2005-03-13,-1.98, 4.18, -15.20, 2.26, 1.56, 7.02, repro,
2005-03-14,-1.55, 3.66, -9.79, 2.25, 1.56, 7.02, repro,
2005-03-15,-0.60, 3.94, -6.51, 2.30, 1.59, 7.14, repro,
2005-03-16,-2.49, 3.86, -1.42, 2.28, 1.59, 7.14, repro,
2005-03-17,-2.94, 4.40, -4.35, 2.26, 1.56, 7.03, repro,
2005-03-18,-1.36, 3.72, -3.64, 2.25, 1.56, 7.01, repro,
2005-03-19,-2.33, 3.35, -1.35, 2.25, 1.56, 7.04, repro,
2005-03-20,-0.75, 2.08, 2.93, 2.26, 1.56, 7.01, repro,
2005-03-21,-1.19, 5.13, 0.24, 2.26, 1.56, 7.01, repro,
2005-03-22,-1.20, 3.69, -4.44, 2.24, 1.55, 7.00, repro,
2005-03-23,-1.41, 3.62, -4.74, 2.25, 1.56, 7.04, repro,
2005-03-24,-1.93, 3.95, -4.40, 2.25, 1.57, 7.06, repro,
2005-03-25,-2.52, 4.11, -5.88, 2.26, 1.57, 7.04, repro,
2005-03-26,-4.76, 2.86, 3.20, 2.26, 1.56, 6.99, repro,
2005-03-27,-3.96, 4.21, -0.38, 2.26, 1.56, 6.99, repro,
2005-03-28,-4.52, 4.36, 5.17, 2.25, 1.56, 7.01, repro,
2005-03-29,-5.01, 4.58, 8.51, 2.31, 1.63, 7.26, repro,
2005-03-30,-5.94, 7.04, 5.82, 2.25, 1.57, 7.02, repro,
2005-03-31,-2.74, 4.32, -10.48, 2.31, 1.60, 7.18, repro,
2005-04-01,-5.29, 4.98, -6.75, 2.26, 1.56, 7.03, repro,
2005-04-02,-2.90, 4.43, -2.04, 2.27, 1.56, 7.05, repro,
2005-04-03,-6.27, 1.64, 3.81, 2.33, 1.57, 7.30, repro,
2005-04-04,-2.46, 4.38, -4.65, 2.34, 1.60, 7.46, repro,
2005-04-05,-0.55, 4.27, -7.24, 2.31, 1.58, 7.27, repro,
2005-04-06,0.17, 3.97, -4.70, 2.39, 1.64, 7.53, repro,
2005-04-07,-3.03, 5.04, -1.05, 2.27, 1.56, 7.09, repro,
2005-04-08,-2.57, 4.59, 3.20, 2.32, 1.57, 7.25, repro,
2005-04-09,-2.80, 3.96, -2.14, 2.31, 1.57, 7.24, repro,
2005-04-10,-1.47, 4.41, -7.56, 2.31, 1.58, 7.26, repro,
2005-04-11,-4.48, 4.69, 0.46, 2.31, 1.57, 7.24, repro,
2005-04-12,-2.46, 2.99, -3.61, 2.31, 1.58, 7.24, repro,
2005-04-13,0.55, 4.82, -0.89, 2.33, 1.57, 7.30, repro,
2005-04-14,-1.52, 5.32, -7.20, 2.51, 1.66, 7.53, repro,
2005-04-15,0.31, 5.46, -10.67, 2.34, 1.59, 7.19, repro,
2005-04-16,-4.89, 4.34, -11.67, 2.26, 1.56, 7.02, repro,
2005-04-17,-0.75, 6.17, -3.69, 2.27, 1.56, 7.03, repro,
2005-04-18,-3.24, 4.59, -4.10, 2.27, 1.56, 7.02, repro,
2005-04-19,-2.24, 6.09, -6.09, 2.27, 1.56, 6.97, repro,
2005-04-20,-2.43, 5.19, -4.88, 2.39, 1.62, 7.54, repro,
2005-04-21,-3.29, 5.51, -11.05, 2.32, 1.58, 7.31, repro,
2005-04-22,-3.50, 5.55, -9.26, 2.26, 1.56, 6.99, repro,
2005-04-23,-2.99, 4.69, -5.25, 2.27, 1.57, 7.03, repro,
2005-04-24,-3.16, 5.43, -6.91, 2.31, 1.57, 7.23, repro,
2005-04-25,-3.39, 5.19, -11.62, 2.31, 1.58, 7.27, repro,
2005-04-26,-3.06, 5.34, -17.81, 2.33, 1.58, 7.30, repro,
2005-04-27,-2.09, 5.15, -16.06, 2.31, 1.60, 7.19, repro,
2005-04-28,-2.66, 4.93, -3.73, 2.38, 1.66, 7.35, repro,
2005-04-29,-2.31, 5.26, -9.33, 2.26, 1.56, 6.99, repro,
2005-04-30,-2.43, 5.91, -16.51, 2.26, 1.56, 6.98, repro,
2005-05-01,-2.59, 6.18, -12.88, 2.32, 1.57, 7.26, repro,
2005-05-02,-3.71, 5.20, -7.71, 2.25, 1.55, 6.98, repro,
2005-05-03,-3.34, 5.33, -9.66, 2.28, 1.60, 7.19, repro,
2005-05-04,-2.40, 5.42, -6.59, 2.25, 1.56, 7.01, repro,
2005-05-05,-2.98, 5.52, -2.82, 2.26, 1.55, 6.96, repro,
2005-05-06,-2.92, 5.45, -6.43, 2.26, 1.55, 6.96, repro,
2005-05-07,-3.36, 5.46, -3.65, 2.28, 1.57, 7.10, repro,
2005-05-08,-2.33, 5.63, -4.62, 2.24, 1.56, 7.04, repro,
2005-05-09,-3.15, 5.92, -8.33, 2.26, 1.56, 7.05, repro,
2005-05-10,-3.91, 5.96, -8.33, 2.31, 1.59, 7.23, repro,
2005-05-11,-3.13, 6.30, -11.97, 2.35, 1.64, 7.35, repro,
2005-05-12,-3.53, 5.86, -15.75, 2.34, 1.65, 7.40, repro,
2005-05-13,-4.41, 5.66, -9.88, 2.40, 1.69, 7.58, repro,
2005-05-14,0.74, 6.96, -4.25, 2.33, 1.66, 7.44, repro,
2005-05-15,-5.35, 5.68, -8.52, 2.35, 1.64, 7.47, repro,
2005-05-16,-3.96, 4.45, -2.79, 2.28, 1.60, 7.11, repro,
2005-05-17,-1.68, 6.94, 3.52, 2.36, 1.63, 7.29, repro,
2005-05-18,-4.73, 4.30, 3.59, 2.39, 1.65, 7.39, repro,
2005-05-19,-5.05, 4.87, -8.32, 2.32, 1.63, 7.29, repro,
2005-05-20,-6.92, 5.89, -11.21, 2.27, 1.60, 7.17, repro,
2005-05-21,-1.81, 5.16, -9.12, 2.27, 1.60, 7.15, repro,
2005-05-22,-5.11, 5.21, -9.29, 2.27, 1.60, 7.14, repro,
2005-05-23,-3.97, 6.91, -13.60, 2.29, 1.61, 7.16, repro,
2005-05-24,-2.48, 6.02, -10.84, 2.30, 1.62, 7.27, repro,
2005-05-25,-2.36, 5.42, -15.72, 2.31, 1.61, 7.25, repro,
2005-05-26,-1.83, 4.81, -7.51, 2.80, 1.97, 9.05, repro,
2005-05-27,-3.42, 4.93, -9.01, 2.26, 1.60, 7.13, repro,
2005-05-28,-3.84, 5.14, -6.01, 2.28, 1.61, 7.18, repro,
2005-05-29,-2.95, 5.79, -6.12, 2.31, 1.62, 7.28, repro,
2005-05-30,-4.42, 5.23, -9.35, 2.30, 1.61, 7.24, repro,
2005-05-31,-3.73, 5.58, -8.00, 2.28, 1.61, 7.23, repro,
2005-06-01,-3.93, 4.82, -7.55, 2.31, 1.60, 7.13, repro,
2005-06-02,-5.00, 6.23, -9.22, 2.26, 1.55, 7.00, repro,
2005-06-03,-4.26, 6.75, -6.27, 2.28, 1.55, 7.02, repro,
2005-06-04,-3.43, 5.86, -3.22, 2.29, 1.56, 7.08, repro,
2005-06-05,-2.27, 6.39, -0.38, 2.28, 1.56, 7.08, repro,
2005-06-06,-1.93, 5.71, -5.85, 2.28, 1.56, 7.05, repro,
2005-06-07,-4.64, 5.93, -7.53, 2.26, 1.57, 7.02, repro,
2005-06-08,-5.14, 6.19, -4.75, 2.26, 1.56, 7.02, repro,
2005-06-09,-3.63, 5.88, -5.59, 2.29, 1.57, 7.16, repro,
2005-06-10,-5.53, 6.41, -9.65, 2.33, 1.61, 7.29, repro,
2005-06-11,-4.22, 5.62, -8.16, 2.32, 1.60, 7.22, repro,
2005-06-12,-4.20, 5.52, -10.39, 2.33, 1.63, 7.27, repro,
2005-06-13,-3.63, 7.07, -8.82, 2.38, 1.65, 7.36, repro,
2005-06-14,-3.48, 6.89, -12.34, 2.32, 1.60, 7.17, repro,
2005-06-15,-3.82, 7.00, -3.69, 2.38, 1.65, 7.42, repro,
2005-06-16,-2.49, 6.48, -3.17, 2.36, 1.59, 7.18, repro,
2005-06-17,-4.35, 5.78, -2.97, 2.35, 1.59, 7.15, repro,
2005-06-18,-5.46, 4.69, -4.38, 2.28, 1.60, 7.13, repro,
2005-06-19,-6.61, 8.59, -24.93, 4.11, 2.70, 12.38, repro,
2005-06-20,-4.40, 5.20, -6.62, 2.28, 1.57, 7.10, repro,
2005-06-21,-5.08, 4.60, -3.99, 2.27, 1.58, 7.10, repro,
2005-06-22,-3.60, 5.29, -11.58, 2.28, 1.56, 7.07, repro,
2005-06-23,-5.53, 5.11, -9.62, 2.27, 1.56, 7.04, repro,
2005-06-24,-4.45, 6.10, -5.69, 2.49, 1.74, 8.01, repro,
2005-06-25,-5.16, 6.00, -7.78, 2.28, 1.57, 7.10, repro,
2005-06-26,-4.39, 5.07, -6.54, 2.35, 1.60, 7.27, repro,
2005-06-27,-4.09, 5.10, -7.00, 2.28, 1.57, 7.07, repro,
2005-06-28,-5.32, 6.06, -5.76, 2.91, 2.02, 9.07, repro,
2005-06-29,-5.11, 5.22, -6.85, 2.25, 1.55, 7.01, repro,
2005-06-30,-4.41, 6.18, -5.62, 2.22, 1.55, 6.94, repro,
2005-07-01,-5.29, 4.91, -0.67, 2.31, 1.61, 7.29, repro,
2005-07-02,-4.58, 5.40, -7.39, 2.27, 1.57, 7.04, repro,
2005-07-03,-5.97, 6.16, -7.88, 2.27, 1.57, 7.05, repro,
2005-07-04,-5.47, 5.32, -8.51, 2.24, 1.56, 6.95, repro,
2005-07-05,-5.95, 6.19, -2.65, 2.27, 1.59, 7.14, repro,
2005-07-06,-7.59, 5.12, -0.40, 2.27, 1.57, 7.08, repro,
2005-07-07,-4.91, 5.61, -7.45, 2.35, 1.60, 7.20, repro,
2005-07-08,-4.75, 3.79, -7.97, 2.27, 1.58, 7.08, repro,
2005-07-09,-5.19, 5.76, -1.78, 2.29, 1.62, 7.25, repro,
2005-07-10,-3.89, 6.13, -1.99, 2.36, 1.65, 7.28, repro,
2005-07-11,-5.02, 6.06, -9.34, 3.86, 2.53, 11.79, repro,
2005-07-12,-5.11, 5.09, -4.87, 2.27, 1.57, 7.07, repro,
2005-07-13,-4.18, 6.93, -8.62, 2.26, 1.58, 7.07, repro,
2005-07-14,-4.78, 6.35, -5.12, 2.28, 1.61, 7.18, repro,
2005-07-15,-5.71, 5.98, -0.60, 2.24, 1.56, 6.97, repro,
2005-07-16,-4.84, 6.51, -2.10, 2.29, 1.61, 7.19, repro,
2005-07-17,-2.64, 5.76, -2.56, 2.28, 1.58, 7.13, repro,
2005-07-18,-4.97, 6.93, 1.14, 2.29, 1.58, 7.15, repro,
2005-07-19,-4.10, 6.46, -1.48, 2.27, 1.58, 7.10, repro,
2005-07-20,-4.24, 5.76, -3.51, 2.26, 1.57, 7.02, repro,
2005-07-21,-5.34, 6.62, -1.86, 2.25, 1.56, 6.98, repro,
2005-07-22,-3.74, 4.93, 2.30, 2.26, 1.57, 7.06, repro,
2005-07-23,-3.23, 5.65, -5.11, 2.29, 1.58, 7.16, repro,
2005-07-24,-4.94, 7.64, -6.60, 2.28, 1.61, 7.24, repro,
2005-07-25,-3.53, 7.85, -5.91, 2.28, 1.61, 7.23, repro,
2005-07-26,-5.71, 6.56, -1.70, 2.32, 1.65, 7.42, repro,
2005-07-27,-4.87, 6.71, -2.12, 2.33, 1.66, 7.34, repro,
2005-07-28,-5.04, 7.65, -3.78, 2.35, 1.66, 7.38, repro,
2005-07-29,-5.45, 7.25, -4.93, 2.31, 1.60, 7.30, repro,
2005-07-30,-3.14, 5.84, -2.18, 2.29, 1.60, 7.28, repro,
2005-07-31,-5.85, 5.97, 1.34, 2.29, 1.60, 7.23, repro,
2005-08-01,-5.28, 7.15, -0.29, 2.29, 1.60, 7.20, repro,
2005-08-02,-4.06, 7.49, -11.88, 2.28, 1.59, 7.15, repro,
2005-08-03,-5.47, 7.84, -1.72, 2.26, 1.57, 7.06, repro,
2005-08-04,-4.23, 7.93, -6.10, 2.28, 1.58, 7.11, repro,
2005-08-05,-4.53, 7.68, -4.87, 2.27, 1.59, 7.13, repro,
2005-08-06,-5.15, 7.39, -1.45, 2.27, 1.57, 7.04, repro,
2005-08-07,-5.56, 8.13, -6.36, 2.26, 1.56, 6.99, repro,
2005-08-08,-3.55, 8.04, -4.17, 2.26, 1.56, 7.01, repro,
2005-08-09,-4.46, 7.18, -3.61, 2.27, 1.57, 7.07, repro,
2005-08-10,-4.56, 7.59, -4.18, 2.25, 1.58, 7.10, repro,
2005-08-11,-4.09, 7.76, -5.75, 2.38, 1.70, 7.48, repro,
2005-08-12,-3.91, 7.55, -1.45, 2.44, 1.72, 7.66, repro,
2005-08-13,-5.42, 7.51, -1.85, 2.25, 1.57, 7.02, repro,
2005-08-14,-5.82, 7.13, 1.08, 2.38, 1.68, 7.40, repro,
2005-08-15,-3.92, 7.90, 0.69, 2.39, 1.68, 7.44, repro,
2005-08-16,-4.16, 8.24, -5.01, 2.34, 1.62, 7.26, repro,
2005-08-17,-7.93, 7.75, 6.46, 2.45, 1.73, 7.66, repro,
2005-08-18,-4.03, 7.31, 0.15, 2.26, 1.58, 7.07, repro,
2005-08-19,-5.42, 6.78, 4.34, 2.25, 1.56, 7.04, repro,
2005-08-20,-5.02, 6.27, 0.35, 2.40, 1.63, 7.44, repro,
2005-08-21,-4.33, 7.04, 1.06, 2.26, 1.58, 7.13, repro,
2005-08-22,-4.74, 7.23, -0.54, 2.28, 1.58, 7.14, repro,
2005-08-23,-6.01, 7.71, 2.97, 2.27, 1.56, 7.08, repro,
2005-08-24,-4.63, 6.53, -1.33, 2.25, 1.56, 7.03, repro,
2005-08-25,-5.06, 6.88, 2.25, 2.30, 1.61, 7.22, repro,
2005-08-26,-4.49, 7.37, 3.59, 2.26, 1.56, 7.08, repro,
2005-08-27,-3.96, 7.73, 3.29, 2.43, 1.65, 7.46, repro,
2005-08-28,-6.02, 7.47, -0.53, 2.27, 1.56, 7.09, repro,
2005-08-29,-6.67, 8.67, 9.85, 2.31, 1.63, 7.24, repro,
2005-08-30,-5.07, 7.37, -3.11, 2.32, 1.62, 7.47, repro,
2005-08-31,-4.10, 8.35, -0.21, 2.29, 1.61, 7.18, repro,
2005-09-01,-3.22, 7.22, 1.57, 2.28, 1.57, 7.13, repro,
2005-09-02,-4.81, 7.25, 3.47, 2.52, 1.72, 7.85, repro,
2005-09-03,-5.42, 6.71, 1.16, 2.26, 1.57, 7.09, repro,
2005-09-04,-4.66, 6.22, 4.30, 2.29, 1.61, 7.19, repro,
2005-09-05,-3.48, 7.72, -3.54, 2.29, 1.60, 7.19, repro,
2005-09-06,-4.88, 7.57, -5.98, 2.26, 1.56, 7.06, repro,
2005-09-07,-5.56, 7.49, -0.32, 2.35, 1.59, 7.20, repro,
2005-09-08,-4.94, 7.32, 2.02, 2.32, 1.58, 7.17, repro,
2005-09-09,-4.28, 6.87, -1.03, 2.31, 1.58, 7.07, repro,
2005-09-10,-4.72, 7.35, -1.91, 2.32, 1.57, 7.08, repro,
2005-09-11,-4.40, 7.09, -0.73, 2.34, 1.59, 7.19, repro,
2005-09-12,-4.88, 7.02, -0.76, 2.34, 1.58, 7.18, repro,
2005-09-13,-5.22, 7.50, 5.04, 2.45, 1.67, 7.52, repro,
2005-09-14,-5.16, 9.90, 0.09, 5.41, 3.75, 15.39, repro,
2005-09-15,-5.24, 7.15, -1.26, 2.36, 1.63, 7.28, repro,
2005-09-16,-6.00, 7.40, 5.56, 2.38, 1.63, 7.34, repro,
2005-09-17,-4.60, 7.62, 0.26, 2.25, 1.55, 7.06, repro,
2005-09-18,-4.70, 6.69, 2.72, 2.26, 1.56, 7.08, repro,
2005-09-19,-5.03, 6.88, 2.44, 2.31, 1.58, 7.27, repro,
2005-09-20,-4.94, 7.28, -2.49, 2.24, 1.55, 7.01, repro,
2005-09-21,-4.73, 6.15, 1.51, 2.29, 1.59, 7.30, repro,
2005-09-22,-3.67, 7.17, -9.80, 2.26, 1.56, 7.11, repro,
2005-09-23,-4.01, 6.18, -5.49, 2.29, 1.60, 7.32, repro,
2005-09-24,-5.58, 6.73, -4.01, 2.29, 1.61, 7.24, repro,
2005-09-25,-5.84, 6.84, 0.12, 2.28, 1.60, 7.18, repro,
2005-09-26,-4.79, 7.59, 5.96, 2.29, 1.60, 7.21, repro,
2005-09-27,-4.10, 6.97, 1.35, 2.30, 1.61, 7.23, repro,
2005-09-28,-5.82, 7.47, 9.61, 3.17, 2.05, 9.37, repro,
2005-09-29,-3.80, 8.97, 10.91, 2.34, 1.59, 7.18, repro,
2005-09-30,-5.22, 7.48, 12.61, 2.26, 1.57, 7.08, repro,
2005-10-01,-5.68, 7.86, 9.55, 2.26, 1.55, 7.05, repro,
2005-10-02,-5.31, 7.39, 3.22, 2.31, 1.61, 7.23, repro,
2005-10-03,-4.09, 7.42, -0.88, 2.30, 1.60, 7.20, repro,
2005-10-04,-5.44, 7.17, -5.77, 2.34, 1.60, 7.30, repro,
2005-10-05,-3.95, 8.08, 2.78, 4.73, 3.05, 12.91, repro,
2005-10-06,-3.82, 7.81, 6.16, 2.25, 1.56, 7.04, repro,
2005-10-07,-3.49, 7.56, 8.26, 2.33, 1.63, 7.25, repro,
2005-10-08,-6.39, 7.57, 3.69, 2.27, 1.56, 7.05, repro,
2005-10-09,-3.70, 7.70, 1.44, 2.28, 1.57, 7.08, repro,
2005-10-10,-5.83, 7.36, -1.41, 2.26, 1.57, 7.05, repro,
2005-10-11,-5.10, 8.21, -0.04, 2.26, 1.60, 7.12, repro,
2005-10-12,-5.56, 8.27, 0.41, 2.38, 1.68, 7.43, repro,
2005-10-13,-4.43, 6.89, 2.63, 2.29, 1.60, 7.27, repro,
2005-10-14,-6.83, 5.50, 5.96, 2.27, 1.57, 7.08, repro,
2005-10-15,-6.76, 6.54, 1.58, 2.27, 1.57, 7.04, repro,
2005-10-16,-6.39, 8.58, 3.49, 2.30, 1.58, 7.33, repro,
2005-10-17,-5.91, 7.88, 6.29, 2.26, 1.58, 7.11, repro,
2005-10-18,-4.46, 7.77, 2.04, 2.43, 1.71, 7.66, repro,
2005-10-19,-4.04, 8.86, -0.21, 2.36, 1.65, 7.46, repro,
2005-10-20,-4.90, 9.32, -0.17, 2.35, 1.59, 7.17, repro,
2005-10-21,-4.90, 8.10, -0.42, 2.28, 1.60, 7.22, repro,
2005-10-22,-3.24, 7.42, 4.05, 2.26, 1.57, 7.06, repro,
2005-10-23,-4.82, 7.26, 2.82, 2.31, 1.61, 7.23, repro,
2005-10-24,-3.84, 8.30, 1.56, 2.32, 1.61, 7.27, repro,
2005-10-25,-6.46, 6.70, 3.12, 2.31, 1.62, 7.23, repro,
2005-10-26,-6.31, 7.91, 2.48, 2.43, 1.74, 7.69, repro,
2005-10-27,-5.20, 7.09, 2.96, 2.32, 1.65, 7.39, repro,
2005-10-28,-2.40, 5.86, 4.91, 2.27, 1.56, 7.05, repro,
2005-10-29,-3.66, 9.45, 4.25, 2.30, 1.61, 7.29, repro,
2005-10-30,-4.42, 8.27, -4.48, 2.26, 1.56, 7.07, repro,
2005-10-31,-6.34, 7.99, -2.65, 2.42, 1.69, 7.64, repro,
2005-11-01,-7.18, 6.75, -1.53, 2.46, 1.75, 7.82, repro,
2005-11-02,-3.40, 8.14, 0.01, 2.39, 1.72, 7.59, repro,
2005-11-03,-6.07, 7.13, 2.40, 2.36, 1.67, 7.38, repro,
2005-11-04,-5.45, 10.08, 4.53, 2.41, 1.71, 7.64, repro,
2005-11-05,-5.33, 10.31, 5.71, 2.42, 1.74, 7.66, repro,
2005-11-06,-4.66, 9.16, -0.67, 2.37, 1.69, 7.46, repro,
2005-11-07,-3.95, 8.88, -2.28, 2.42, 1.75, 7.66, repro,
2005-11-08,-5.30, 9.21, -7.14, 2.45, 1.78, 7.78, repro,
2005-11-09,-5.44, 8.68, -3.35, 2.47, 1.78, 7.84, repro,
2005-11-10,-6.32, 7.66, -1.19, 2.62, 1.83, 8.20, repro,
2005-11-11,-6.52, 8.21, 6.64, 2.58, 1.77, 8.17, repro,
2005-11-12,-6.76, 9.36, 2.83, 2.27, 1.62, 7.13, repro,
2005-11-13,-5.98, 10.81, 6.41, 2.44, 1.74, 7.68, repro,
2005-11-14,-5.39, 8.37, -5.54, 2.39, 1.69, 7.54, repro,
2005-11-15,-4.82, 8.45, -15.41, 2.32, 1.60, 7.29, repro,
2005-11-16,-3.96, 8.71, -17.05, 2.35, 1.65, 7.43, repro,
2005-11-17,-5.43, 7.83, -13.29, 2.25, 1.57, 7.12, repro,
2005-11-18,-5.92, 8.23, -12.80, 2.26, 1.57, 7.12, repro,
2005-11-19,-6.53, 7.88, -7.13, 2.24, 1.56, 7.03, repro,
2005-11-20,-4.77, 8.45, -8.14, 2.29, 1.59, 7.25, repro,
2005-11-21,-4.98, 8.20, -7.50, 2.58, 1.76, 8.16, repro,
2005-11-22,-5.83, 9.07, -2.58, 2.35, 1.67, 7.49, repro,
2005-11-23,-5.35, 8.97, -3.35, 2.33, 1.66, 7.45, repro,
2005-11-24,-6.58, 7.50, -1.21, 2.26, 1.56, 7.07, repro,
2005-11-25,-4.50, 8.75, 1.44, 2.28, 1.59, 7.16, repro,
2005-11-26,-5.88, 8.87, -0.25, 2.39, 1.67, 7.58, repro,
2005-11-27,-8.01, 9.07, -2.37, 2.33, 1.62, 7.37, repro,
2005-11-28,-8.88, 7.99, -2.84, 2.34, 1.66, 7.53, repro,
2005-11-29,-9.69, 7.51, -3.75, 2.33, 1.69, 7.62, repro,
2005-11-30,-8.46, 8.79, 1.55, 2.33, 1.61, 7.28, repro,
2005-12-01,-7.62, 9.11, -1.19, 2.27, 1.58, 7.12, repro,
2005-12-02,-9.55, 8.91, 0.56, 2.29, 1.58, 7.16, repro,
2005-12-03,-8.90, 10.68, 0.01, 2.25, 1.58, 7.13, repro,
2005-12-04,-9.75, 11.87, -2.97, 2.27, 1.59, 7.15, repro,
2005-12-05,-9.35, 12.00, -1.31, 2.27, 1.59, 7.17, repro,
2005-12-06,-12.32, 11.65, -2.65, 2.29, 1.59, 7.22, repro,
2005-12-07,-6.22, 8.83, -13.20, 2.32, 1.61, 7.30, repro,
2005-12-08,-6.37, 8.15, -7.94, 2.40, 1.64, 7.42, repro,
2005-12-09,-5.49, 8.70, -11.18, 2.33, 1.63, 7.34, repro,
2005-12-10,-6.65, 8.73, -11.30, 2.30, 1.63, 7.32, repro,
2005-12-11,-5.97, 8.11, -4.17, 2.27, 1.59, 7.16, repro,
2005-12-12,-6.86, 7.74, -7.65, 2.28, 1.58, 7.13, repro,
2005-12-13,-7.36, 7.72, -5.96, 2.28, 1.57, 7.15, repro,
2005-12-14,-6.76, 7.13, -14.34, 2.40, 1.66, 7.55, repro,
2005-12-15,-6.80, 7.74, -14.53, 2.33, 1.61, 7.32, repro,
2005-12-16,-7.30, 7.09, -7.15, 2.38, 1.63, 7.39, repro,
2005-12-17,-5.74, 6.50, -6.80, 2.33, 1.63, 7.26, repro,
2005-12-18,-4.44, 5.96, -12.15, 2.35, 1.66, 7.52, repro,
2005-12-19,-6.04, 5.25, -12.34, 2.38, 1.69, 7.40, repro,
2005-12-20,-4.82, 6.49, -11.08, 2.35, 1.68, 7.37, repro,
2005-12-21,-9.39, 4.69, -7.02, 2.31, 1.67, 7.28, repro,
2005-12-22,-8.03, 6.91, -3.20, 2.38, 1.71, 7.43, repro,
2005-12-23,-7.45, 6.16, -3.86, 2.32, 1.64, 7.16, repro,
2005-12-24,-8.40, 5.78, -15.46, 2.45, 1.79, 7.91, repro,
2005-12-25,-9.51, 6.71, -11.12, 2.37, 1.67, 7.39, repro,
2005-12-26,-8.34, 6.35, -6.62, 2.29, 1.60, 7.10, repro,
2005-12-27,-7.09, 5.30, -7.50, 2.38, 1.69, 7.47, repro,
2005-12-28,-5.98, 7.41, -10.24, 2.29, 1.63, 7.18, repro,
2005-12-29,-6.60, 8.92, -7.87, 2.47, 1.77, 7.84, repro,
2005-12-30,-6.96, 6.63, -4.07, 2.52, 1.82, 8.10, repro,